,,PA_Meas_PMT16A,,PR_Meas_QMR101_102,,RH_Meas_QMH101,,SR_Meas_QMS101,,TA_Meas_QMH101,,GenWind,,GenWind,
time,status,PA,status,PR,status,RH,status,SR,status,TA,status,DirAvg,status,SpdAvg,
2010-06-22, 00:00:05,VALID,917.833,VALID,0,VALID,97.5721,VALID,0,VALID,19.5858,VALID,132,VALID,0.964844,
2010-06-22, 00:01:05,VALID,917.821,VALID,0,VALID,97.5721,VALID,0,VALID,19.5663,VALID,131,VALID,0.772266,
2010-06-22, 00:02:05,VALID,917.788,VALID,0,VALID,97.5645,VALID,0,VALID,19.5858,VALID,132,VALID,0.826953,
2010-06-22, 00:03:05,VALID,917.78,VALID,0,VALID,97.595,VALID,0,VALID,19.5858,VALID,132,VALID,0.508594,
2010-06-22, 00:04:05,VALID,917.745,VALID,0,VALID,97.5797,VALID,0,VALID,19.5858,VALID,132,VALID,0.577344,
2010-06-22, 00:05:05,VALID,917.766,VALID,0,VALID,97.5721,VALID,0,VALID,19.5663,VALID,131,VALID,0.634766,
2010-06-22, 00:06:05,VALID,917.745,VALID,0.2,VALID,97.5797,VALID,0,VALID,19.5468,VALID,132,VALID,0.788281,
2010-06-22, 00:07:05,VALID,917.782,VALID,0,VALID,97.5721,VALID,0,VALID,19.5468,VALID,131,VALID,0.73125,
2010-06-22, 00:08:05,VALID,917.775,VALID,0,VALID,97.5721,VALID,0,VALID,19.5258,VALID,131,VALID,0.551562,
2010-06-22, 00:09:05,VALID,917.765,VALID,0,VALID,97.5797,VALID,0,VALID,19.5468,VALID,132,VALID,0.559766,
2010-06-22, 00:10:05,VALID,917.748,VALID,0,VALID,97.5797,VALID,0,VALID,19.5468,VALID,131,VALID,0.660156,
2010-06-22, 00:11:05,VALID,917.737,VALID,0,VALID,97.5873,VALID,0,VALID,19.5468,VALID,131,VALID,0.457812,
2010-06-22, 00:12:05,VALID,917.731,VALID,0,VALID,97.5797,VALID,0,VALID,19.5468,VALID,131,VALID,0.617969,
2010-06-22, 00:13:05,VALID,917.677,VALID,0,VALID,97.5645,VALID,0,VALID,19.5468,VALID,131,VALID,0.882813,
2010-06-22, 00:14:05,VALID,917.7,VALID,0,VALID,97.5721,VALID,0,VALID,19.5468,VALID,25,VALID,1.25859,
2010-06-22, 00:15:05,VALID,917.702,VALID,0,VALID,97.5873,VALID,0,VALID,19.5273,VALID,3,VALID,0.932422,
2010-06-22, 00:16:05,VALID,917.69,VALID,0,VALID,97.595,VALID,0,VALID,19.5063,VALID,42,VALID,1.42148,
2010-06-22, 00:17:05,VALID,917.692,VALID,0,VALID,97.5873,VALID,0,VALID,19.5273,VALID,10,VALID,1.24648,
2010-06-22, 00:18:05,VALID,917.695,VALID,0,VALID,97.5797,VALID,0,VALID,19.4868,VALID,8,VALID,1.71758,
2010-06-22, 00:19:05,VALID,917.731,VALID,0,VALID,97.5873,VALID,0,VALID,19.4478,VALID,19,VALID,1.17266,
2010-06-22, 00:20:05,VALID,917.709,VALID,0,VALID,97.6102,VALID,0,VALID,19.4688,VALID,42,VALID,1.08516,
2010-06-22, 00:21:05,VALID,917.682,VALID,0,VALID,97.595,VALID,0,VALID,19.4283,VALID,23,VALID,1.51211,
2010-06-22, 00:22:05,VALID,917.7,VALID,0,VALID,97.6026,VALID,0,VALID,19.4088,VALID,22,VALID,0.950391,
2010-06-22, 00:23:05,VALID,917.695,VALID,0,VALID,97.595,VALID,0,VALID,19.4298,VALID,23,VALID,0.492188,
2010-06-22, 00:24:05,VALID,917.688,VALID,0,VALID,97.6102,VALID,0,VALID,19.4298,VALID,22,VALID,0.929297,
2010-06-22, 00:25:05,VALID,917.689,VALID,0,VALID,97.5721,VALID,0,VALID,19.3323,VALID,15,VALID,1.32187,
2010-06-22, 00:26:05,VALID,917.669,VALID,0,VALID,97.6102,VALID,0,VALID,19.2738,VALID,15,VALID,1.08906,
2010-06-22, 00:27:05,VALID,917.661,VALID,0,VALID,97.6026,VALID,0,VALID,19.2528,VALID,15,VALID,1.25234,
2010-06-22, 00:28:05,VALID,917.662,VALID,0,VALID,97.6026,VALID,0,VALID,19.2334,VALID,15,VALID,0.90625,
2010-06-22, 00:29:05,VALID,917.645,VALID,0,VALID,97.6026,VALID,0,VALID,19.2348,VALID,15,VALID,1.12344,
2010-06-22, 00:30:05,VALID,917.657,VALID,0,VALID,97.6026,VALID,0,VALID,19.1958,VALID,15,VALID,0.930859,
2010-06-22, 00:31:04,VALID,917.692,VALID,0,VALID,97.6102,VALID,0,VALID,19.1554,VALID,15,VALID,1.06289,
2010-06-22, 00:32:04,VALID,917.633,VALID,0,VALID,97.6178,VALID,0,VALID,19.1359,VALID,15,VALID,1.15039,
2010-06-22, 00:33:04,VALID,917.639,VALID,0,VALID,97.6331,VALID,0,VALID,19.1359,VALID,15,VALID,1.33945,
2010-06-22, 00:34:04,VALID,917.605,VALID,0,VALID,97.6255,VALID,0,VALID,19.1763,VALID,15,VALID,1.08164,
2010-06-22, 00:35:04,VALID,917.628,VALID,0,VALID,97.6331,VALID,0,VALID,19.1373,VALID,1,VALID,1.56992,
2010-06-22, 00:36:04,VALID,917.599,VALID,0,VALID,97.6255,VALID,0,VALID,19.1178,VALID,354,VALID,1.32227,
2010-06-22, 00:37:04,VALID,917.623,VALID,0,VALID,97.6331,VALID,0,VALID,19.1178,VALID,346,VALID,1.2582,
2010-06-22, 00:38:04,VALID,917.574,VALID,0,VALID,97.6483,VALID,0,VALID,19.1373,VALID,346,VALID,0.95,
2010-06-22, 00:39:04,VALID,917.576,VALID,0,VALID,97.6331,VALID,0,VALID,19.1583,VALID,24,VALID,0.799219,
2010-06-22, 00:40:04,VALID,917.581,VALID,0,VALID,97.6331,VALID,0,VALID,19.1763,VALID,24,VALID,0.800391,
2010-06-22, 00:41:04,VALID,917.544,VALID,0,VALID,97.6407,VALID,0,VALID,19.1763,VALID,24,VALID,0.770312,
2010-06-22, 00:42:04,VALID,917.516,VALID,0,VALID,97.6483,VALID,0,VALID,19.1568,VALID,24,VALID,0.811719,
2010-06-22, 00:43:04,VALID,917.508,VALID,0.2,VALID,97.6483,VALID,0,VALID,19.1359,VALID,24,VALID,0.890625,
2010-06-22, 00:44:04,VALID,917.513,VALID,0,VALID,97.6636,VALID,0,VALID,19.1359,VALID,24,VALID,0.525781,
2010-06-22, 00:45:04,VALID,917.528,VALID,0,VALID,97.6483,VALID,0,VALID,19.1568,VALID,24,VALID,0.61875,
2010-06-22, 00:46:04,VALID,917.505,VALID,0,VALID,97.6483,VALID,0,VALID,19.1568,VALID,24,VALID,0.687109,
2010-06-22, 00:47:04,VALID,917.492,VALID,0,VALID,97.6483,VALID,0,VALID,19.1568,VALID,24,VALID,0.638281,
2010-06-22, 00:48:04,VALID,917.492,VALID,0,VALID,97.6407,VALID,0,VALID,19.1373,VALID,24,VALID,0.756641,
2010-06-22, 00:49:04,VALID,917.449,VALID,0,VALID,97.6407,VALID,0,VALID,19.1178,VALID,24,VALID,0.7875,
2010-06-22, 00:50:04,VALID,917.434,VALID,0,VALID,97.6483,VALID,0,VALID,19.0983,VALID,23,VALID,0.612109,
2010-06-22, 00:51:04,VALID,917.425,VALID,0,VALID,97.6636,VALID,0,VALID,19.0774,VALID,23,VALID,0.626953,
2010-06-22, 00:52:04,VALID,917.394,VALID,0,VALID,97.6483,VALID,0,VALID,19.1178,VALID,23,VALID,0.486328,
2010-06-22, 00:53:04,VALID,917.354,VALID,0,VALID,97.656,VALID,0,VALID,19.1373,VALID,23,VALID,0.691016,
2010-06-22, 00:54:04,VALID,917.34,VALID,0,VALID,97.656,VALID,0,VALID,19.1178,VALID,290,VALID,0.468359,
2010-06-22, 00:55:04,VALID,917.331,VALID,0,VALID,97.6712,VALID,0,VALID,19.1178,VALID,290,VALID,0.208594,
2010-06-22, 00:56:04,VALID,917.314,VALID,0,VALID,97.6636,VALID,0,VALID,19.1178,VALID,290,VALID,0.246484,
2010-06-22, 00:57:04,VALID,917.287,VALID,0,VALID,97.6712,VALID,0,VALID,19.1178,VALID,290,VALID,0.134375,
2010-06-22, 00:58:04,VALID,917.262,VALID,0,VALID,97.6712,VALID,0,VALID,19.0969,VALID,290,VALID,0.336719,
2010-06-22, 00:59:04,VALID,917.268,VALID,0,VALID,97.6483,VALID,0,VALID,19.0593,VALID,290,VALID,0.716016,
2010-06-22, 01:00:04,VALID,917.241,VALID,0,VALID,97.6712,VALID,0,VALID,19.0008,VALID,291,VALID,0.7125,
2010-06-22, 01:01:04,VALID,917.218,VALID,0,VALID,97.6712,VALID,0,VALID,18.9424,VALID,291,VALID,1.03945,
2010-06-22, 01:02:04,VALID,917.217,VALID,0,VALID,97.6407,VALID,0,VALID,18.8839,VALID,291,VALID,0.891406,
2010-06-22, 01:03:04,VALID,917.208,VALID,0,VALID,97.6712,VALID,0,VALID,18.8629,VALID,291,VALID,0.432813,
2010-06-22, 01:04:04,VALID,917.185,VALID,0,VALID,97.6712,VALID,0,VALID,18.9424,VALID,291,VALID,0.321094,
2010-06-22, 01:05:04,VALID,917.16,VALID,0,VALID,97.6636,VALID,0.107441,VALID,18.9229,VALID,291,VALID,0.227344,
2010-06-22, 01:06:04,VALID,917.142,VALID,0,VALID,97.6636,VALID,0,VALID,18.9424,VALID,291,VALID,0,
2010-06-22, 01:07:04,VALID,917.134,VALID,0,VALID,97.6712,VALID,0,VALID,18.9619,VALID,291,VALID,0,
2010-06-22, 01:08:04,VALID,917.136,VALID,0,VALID,97.6483,VALID,0,VALID,19.0008,VALID,291,VALID,0,
2010-06-22, 01:09:04,VALID,917.114,VALID,0,VALID,97.6712,VALID,0,VALID,19.0189,VALID,291,VALID,0.0835937,
2010-06-22, 01:10:04,VALID,917.108,VALID,0,VALID,97.6788,VALID,0,VALID,19.0593,VALID,291,VALID,0,
2010-06-22, 01:11:04,VALID,917.113,VALID,0,VALID,97.6636,VALID,0,VALID,19.0398,VALID,291,VALID,0,
2010-06-22, 01:12:04,VALID,917.104,VALID,0,VALID,97.6712,VALID,0,VALID,19.0384,VALID,291,VALID,0,
2010-06-22, 01:13:04,VALID,917.125,VALID,0,VALID,97.6788,VALID,0,VALID,19.0593,VALID,291,VALID,0,
2010-06-22, 01:14:04,VALID,917.172,VALID,0,VALID,97.6712,VALID,0,VALID,19.0593,VALID,291,VALID,0.0945313,
2010-06-22, 01:15:04,VALID,917.189,VALID,0,VALID,97.6483,VALID,0,VALID,19.0983,VALID,291,VALID,0.351172,
2010-06-22, 01:16:04,VALID,917.159,VALID,0,VALID,97.656,VALID,0,VALID,19.0969,VALID,291,VALID,0.491016,
2010-06-22, 01:17:04,VALID,917.18,VALID,0,VALID,97.656,VALID,0,VALID,19.1373,VALID,291,VALID,0.519141,
2010-06-22, 01:18:04,VALID,917.153,VALID,0,VALID,97.6636,VALID,0,VALID,19.1568,VALID,291,VALID,0.703516,
2010-06-22, 01:19:04,VALID,917.161,VALID,0,VALID,97.6712,VALID,0,VALID,19.1164,VALID,291,VALID,0.435156,
2010-06-22, 01:20:04,VALID,917.149,VALID,0,VALID,97.6712,VALID,0,VALID,19.1359,VALID,291,VALID,0.725781,
2010-06-22, 01:21:04,VALID,917.154,VALID,0,VALID,97.6483,VALID,0,VALID,19.1373,VALID,291,VALID,0.729297,
2010-06-22, 01:22:04,VALID,917.145,VALID,0,VALID,97.6636,VALID,0,VALID,19.1373,VALID,291,VALID,1.15156,
2010-06-22, 01:23:04,VALID,917.115,VALID,0,VALID,97.6712,VALID,0,VALID,19.1178,VALID,291,VALID,0.766406,
2010-06-22, 01:24:04,VALID,917.108,VALID,0,VALID,97.6712,VALID,0,VALID,19.1373,VALID,244,VALID,0.879687,
2010-06-22, 01:25:04,VALID,917.094,VALID,0,VALID,97.6712,VALID,0,VALID,19.1373,VALID,243,VALID,0.926172,
2010-06-22, 01:26:04,VALID,917.062,VALID,0,VALID,97.6712,VALID,0,VALID,19.1373,VALID,244,VALID,0.842969,
2010-06-22, 01:27:04,VALID,917.101,VALID,0,VALID,97.6636,VALID,0,VALID,19.1178,VALID,243,VALID,0.141016,
2010-06-22, 01:28:04,VALID,917.055,VALID,0,VALID,97.6636,VALID,0,VALID,19.1568,VALID,244,VALID,0.251953,
2010-06-22, 01:29:04,VALID,917.09,VALID,0,VALID,97.6865,VALID,0,VALID,19.1763,VALID,244,VALID,0.20625,
2010-06-22, 01:30:04,VALID,917.06,VALID,0,VALID,97.6712,VALID,0,VALID,19.1763,VALID,244,VALID,0.141016,
2010-06-22, 01:31:04,VALID,917.059,VALID,0,VALID,97.6636,VALID,0,VALID,19.1554,VALID,244,VALID,0,
2010-06-22, 01:32:04,VALID,917.079,VALID,0,VALID,97.6788,VALID,0,VALID,19.1568,VALID,243,VALID,0.438672,
2010-06-22, 01:33:04,VALID,917.067,VALID,0,VALID,97.6865,VALID,0,VALID,19.0983,VALID,243,VALID,0.75,
2010-06-22, 01:34:04,VALID,917.056,VALID,0,VALID,97.6712,VALID,0,VALID,19.0593,VALID,243,VALID,0.81875,
2010-06-22, 01:35:04,VALID,917.053,VALID,0,VALID,97.6941,VALID,0,VALID,19.0398,VALID,156,VALID,0.780469,
2010-06-22, 01:36:04,VALID,917.06,VALID,0,VALID,97.6712,VALID,0,VALID,19.0398,VALID,156,VALID,0.232422,
2010-06-22, 01:37:04,VALID,917.062,VALID,0,VALID,97.6712,VALID,0,VALID,19.0203,VALID,156,VALID,0.314063,
2010-06-22, 01:38:04,VALID,917.04,VALID,0,VALID,97.6865,VALID,0,VALID,18.9994,VALID,156,VALID,0.009375,
2010-06-22, 01:39:04,VALID,917.036,VALID,0,VALID,97.6636,VALID,0,VALID,18.9799,VALID,156,VALID,0.00195313,
2010-06-22, 01:40:04,VALID,917.023,VALID,0,VALID,97.6941,VALID,0,VALID,19.0203,VALID,156,VALID,0.291016,
2010-06-22, 01:41:04,VALID,917.018,VALID,0,VALID,97.6636,VALID,0,VALID,18.9814,VALID,156,VALID,0.411328,
2010-06-22, 01:42:04,VALID,917.013,VALID,0,VALID,97.6941,VALID,0,VALID,18.9619,VALID,156,VALID,0.739844,
2010-06-22, 01:43:04,VALID,917.024,VALID,0,VALID,97.6788,VALID,0.107441,VALID,18.9214,VALID,156,VALID,1.03125,
2010-06-22, 01:44:04,VALID,917.028,VALID,0,VALID,97.6788,VALID,0,VALID,18.9214,VALID,156,VALID,0.96875,
2010-06-22, 01:45:04,VALID,917.027,VALID,0,VALID,97.6865,VALID,0,VALID,18.9619,VALID,156,VALID,0.53125,
2010-06-22, 01:46:04,VALID,917.008,VALID,0,VALID,97.6865,VALID,0,VALID,18.9424,VALID,156,VALID,0.826172,
2010-06-22, 01:47:04,VALID,916.983,VALID,0,VALID,97.6712,VALID,0,VALID,18.9619,VALID,156,VALID,1.14922,
2010-06-22, 01:48:04,VALID,916.967,VALID,0,VALID,97.6788,VALID,0,VALID,18.9814,VALID,156,VALID,0.891797,
2010-06-22, 01:49:04,VALID,916.924,VALID,0,VALID,97.6865,VALID,0,VALID,18.9814,VALID,155,VALID,0.912109,
2010-06-22, 01:50:04,VALID,916.893,VALID,0,VALID,97.6941,VALID,0,VALID,19.0023,VALID,155,VALID,0.787109,
2010-06-22, 01:51:04,VALID,916.885,VALID,0,VALID,97.6788,VALID,0,VALID,19.0203,VALID,155,VALID,0.912109,
2010-06-22, 01:52:04,VALID,916.819,VALID,0,VALID,97.6788,VALID,0,VALID,19.0203,VALID,155,VALID,0.758594,
2010-06-22, 01:53:04,VALID,916.808,VALID,0,VALID,97.6941,VALID,0,VALID,19.0203,VALID,155,VALID,0.465234,
2010-06-22, 01:54:04,VALID,916.806,VALID,0,VALID,97.7017,VALID,0,VALID,18.9994,VALID,155,VALID,0.503516,
2010-06-22, 01:55:04,VALID,916.79,VALID,0,VALID,97.6941,VALID,0,VALID,19.0593,VALID,155,VALID,0.325,
2010-06-22, 01:56:04,VALID,916.799,VALID,0,VALID,97.6865,VALID,0,VALID,19.0998,VALID,155,VALID,0.38125,
2010-06-22, 01:57:04,VALID,916.819,VALID,0,VALID,97.6941,VALID,0,VALID,19.0593,VALID,155,VALID,0.276953,
2010-06-22, 01:58:04,VALID,916.802,VALID,0,VALID,97.7017,VALID,0,VALID,19.0593,VALID,155,VALID,0.516016,
2010-06-22, 01:59:04,VALID,916.796,VALID,0,VALID,97.6788,VALID,0,VALID,19.0788,VALID,155,VALID,0.610547,
2010-06-22, 02:00:04,VALID,916.794,VALID,0,VALID,97.6865,VALID,0,VALID,19.0593,VALID,155,VALID,0.320313,
2010-06-22, 02:01:04,VALID,916.817,VALID,0,VALID,97.6941,VALID,0,VALID,19.0593,VALID,155,VALID,0.405859,
2010-06-22, 02:02:04,VALID,916.811,VALID,0,VALID,97.6788,VALID,0,VALID,19.0593,VALID,155,VALID,0.595703,
2010-06-22, 02:03:04,VALID,916.786,VALID,0,VALID,97.6865,VALID,0,VALID,19.0788,VALID,155,VALID,0.489844,
2010-06-22, 02:04:04,VALID,916.772,VALID,0,VALID,97.6941,VALID,0,VALID,19.0788,VALID,155,VALID,0.517969,
2010-06-22, 02:05:04,VALID,916.788,VALID,0,VALID,97.6941,VALID,0,VALID,19.0788,VALID,155,VALID,0.234766,
2010-06-22, 02:06:04,VALID,916.773,VALID,0,VALID,97.6941,VALID,0,VALID,19.0998,VALID,155,VALID,0.517969,
2010-06-22, 02:07:04,VALID,916.794,VALID,0,VALID,97.7017,VALID,0,VALID,19.0398,VALID,155,VALID,0.525391,
2010-06-22, 02:08:04,VALID,916.791,VALID,0,VALID,97.7017,VALID,0,VALID,19.0398,VALID,155,VALID,0.345313,
2010-06-22, 02:09:04,VALID,916.779,VALID,0,VALID,97.6788,VALID,0,VALID,19.0398,VALID,155,VALID,0.727734,
2010-06-22, 02:10:04,VALID,916.795,VALID,0,VALID,97.7093,VALID,0,VALID,19.0413,VALID,155,VALID,0.594141,
2010-06-22, 02:11:04,VALID,916.819,VALID,0,VALID,97.6865,VALID,0,VALID,19.0398,VALID,155,VALID,0.698047,
2010-06-22, 02:12:04,VALID,916.784,VALID,0,VALID,97.6788,VALID,0,VALID,19.0593,VALID,155,VALID,0.610937,
2010-06-22, 02:13:04,VALID,916.788,VALID,0,VALID,97.6941,VALID,0,VALID,19.0593,VALID,155,VALID,0.540625,
2010-06-22, 02:14:04,VALID,916.794,VALID,0,VALID,97.7169,VALID,0,VALID,19.0593,VALID,155,VALID,0.554297,
2010-06-22, 02:15:04,VALID,916.791,VALID,0,VALID,97.6941,VALID,0,VALID,19.0788,VALID,155,VALID,1.04375,
2010-06-22, 02:16:04,VALID,916.78,VALID,0,VALID,97.7093,VALID,0,VALID,19.0998,VALID,155,VALID,0.8875,
2010-06-22, 02:17:04,VALID,916.781,VALID,0,VALID,97.7169,VALID,0,VALID,19.0788,VALID,155,VALID,1.04805,
2010-06-22, 02:18:04,VALID,916.779,VALID,0,VALID,97.6941,VALID,0,VALID,19.0788,VALID,155,VALID,0.655469,
2010-06-22, 02:19:04,VALID,916.723,VALID,0,VALID,97.7017,VALID,0,VALID,19.0983,VALID,135,VALID,1.20508,
2010-06-22, 02:20:04,VALID,916.711,VALID,0,VALID,97.6941,VALID,0,VALID,19.0983,VALID,111,VALID,1.35859,
2010-06-22, 02:21:04,VALID,916.679,VALID,0,VALID,97.6865,VALID,0,VALID,19.0788,VALID,111,VALID,1.05469,
2010-06-22, 02:22:04,VALID,916.64,VALID,0,VALID,97.6865,VALID,0,VALID,19.0803,VALID,101,VALID,1.30234,
2010-06-22, 02:23:04,VALID,916.607,VALID,0,VALID,97.6788,VALID,0,VALID,19.0593,VALID,126,VALID,1.07617,
2010-06-22, 02:24:04,VALID,916.599,VALID,0,VALID,97.6941,VALID,0,VALID,19.0593,VALID,127,VALID,1.21289,
2010-06-22, 02:25:04,VALID,916.608,VALID,0,VALID,97.6788,VALID,0,VALID,19.0398,VALID,128,VALID,0.870313,
2010-06-22, 02:26:04,VALID,916.574,VALID,0,VALID,97.7093,VALID,0,VALID,19.0398,VALID,136,VALID,0.929297,
2010-06-22, 02:27:04,VALID,916.583,VALID,0,VALID,97.7017,VALID,0,VALID,19.0413,VALID,136,VALID,1.33477,
2010-06-22, 02:28:04,VALID,916.556,VALID,0,VALID,97.6941,VALID,0,VALID,19.0413,VALID,153,VALID,0.553906,
2010-06-22, 02:29:04,VALID,916.527,VALID,0,VALID,97.6865,VALID,0,VALID,19.0398,VALID,134,VALID,0.926562,
2010-06-22, 02:30:04,VALID,916.49,VALID,0,VALID,97.7093,VALID,0,VALID,19.0593,VALID,134,VALID,1.22148,
2010-06-22, 02:31:04,VALID,916.436,VALID,0,VALID,97.7017,VALID,0,VALID,19.0398,VALID,109,VALID,1.5,
2010-06-22, 02:32:04,VALID,916.429,VALID,0,VALID,97.6865,VALID,0,VALID,19.0398,VALID,110,VALID,0.942578,
2010-06-22, 02:33:04,VALID,916.384,VALID,0,VALID,97.7093,VALID,0,VALID,19.0398,VALID,121,VALID,1.50391,
2010-06-22, 02:34:04,VALID,916.367,VALID,0,VALID,97.7017,VALID,0,VALID,19.0593,VALID,97,VALID,1.23828,
2010-06-22, 02:35:04,VALID,916.376,VALID,0,VALID,97.7017,VALID,0,VALID,19.0398,VALID,120,VALID,1.23984,
2010-06-22, 02:36:04,VALID,916.403,VALID,0,VALID,97.7093,VALID,0,VALID,19.0593,VALID,161,VALID,0.955469,
2010-06-22, 02:37:04,VALID,916.387,VALID,0,VALID,97.7093,VALID,0,VALID,19.0593,VALID,129,VALID,1.83086,
2010-06-22, 02:38:04,VALID,916.379,VALID,0,VALID,97.7169,VALID,0,VALID,19.0998,VALID,146,VALID,1.58594,
2010-06-22, 02:39:04,VALID,916.427,VALID,0,VALID,97.6941,VALID,0,VALID,19.0983,VALID,145,VALID,1.64961,
2010-06-22, 02:40:04,VALID,916.38,VALID,0,VALID,97.7017,VALID,0,VALID,19.1178,VALID,125,VALID,1.81484,
2010-06-22, 02:41:04,VALID,916.379,VALID,0,VALID,97.6941,VALID,0,VALID,19.0998,VALID,154,VALID,1.60625,
2010-06-22, 02:42:04,VALID,916.377,VALID,0,VALID,97.7093,VALID,0,VALID,19.0983,VALID,137,VALID,1.22187,
2010-06-22, 02:43:04,VALID,916.413,VALID,0,VALID,97.7169,VALID,0,VALID,19.0788,VALID,174,VALID,1.28359,
2010-06-22, 02:44:04,VALID,916.355,VALID,0,VALID,97.7017,VALID,0,VALID,19.0788,VALID,126,VALID,1.4875,
2010-06-22, 02:45:04,VALID,916.339,VALID,0,VALID,97.7017,VALID,0,VALID,19.0593,VALID,101,VALID,0.857422,
2010-06-22, 02:46:04,VALID,916.334,VALID,0,VALID,97.7093,VALID,0,VALID,19.0593,VALID,119,VALID,1.05859,
2010-06-22, 02:47:04,VALID,916.307,VALID,0,VALID,97.7322,VALID,0,VALID,19.0608,VALID,145,VALID,0.903906,
2010-06-22, 02:48:04,VALID,916.286,VALID,0,VALID,97.7169,VALID,0,VALID,19.0203,VALID,163,VALID,1.20391,
2010-06-22, 02:49:04,VALID,916.28,VALID,0,VALID,97.7093,VALID,0,VALID,19.0203,VALID,139,VALID,0.689844,
2010-06-22, 02:50:04,VALID,916.237,VALID,0,VALID,97.7093,VALID,0,VALID,19.0203,VALID,139,VALID,0.165234,
2010-06-22, 02:51:04,VALID,916.219,VALID,0,VALID,97.7169,VALID,0,VALID,19.0203,VALID,139,VALID,0.794531,
2010-06-22, 02:52:04,VALID,916.176,VALID,0,VALID,97.7093,VALID,0,VALID,19.0218,VALID,139,VALID,0.749219,
2010-06-22, 02:53:04,VALID,916.205,VALID,0,VALID,97.7246,VALID,0,VALID,18.9814,VALID,139,VALID,1.06289,
2010-06-22, 02:54:04,VALID,916.182,VALID,0,VALID,97.7169,VALID,0,VALID,19.0023,VALID,139,VALID,1.2418,
2010-06-22, 02:55:04,VALID,916.13,VALID,0,VALID,97.7093,VALID,0,VALID,18.9619,VALID,123,VALID,0.993359,
2010-06-22, 02:56:04,VALID,916.132,VALID,0,VALID,97.7169,VALID,0,VALID,18.9633,VALID,121,VALID,1.36406,
2010-06-22, 02:57:04,VALID,916.13,VALID,0,VALID,97.7093,VALID,0,VALID,18.9229,VALID,121,VALID,0.433594,
2010-06-22, 02:58:04,VALID,916.119,VALID,0,VALID,97.7169,VALID,0,VALID,18.9229,VALID,121,VALID,0.982813,
2010-06-22, 02:59:04,VALID,916.114,VALID,0,VALID,97.7246,VALID,0,VALID,18.9034,VALID,121,VALID,0.837109,
2010-06-22, 03:00:04,VALID,916.083,VALID,0,VALID,97.7246,VALID,0,VALID,18.9034,VALID,121,VALID,0.891406,
2010-06-22, 03:01:04,VALID,916.08,VALID,0,VALID,97.7474,VALID,0,VALID,18.9048,VALID,111,VALID,1.21641,
2010-06-22, 03:02:04,VALID,916.094,VALID,0,VALID,97.7322,VALID,0,VALID,18.8644,VALID,110,VALID,1.05273,
2010-06-22, 03:03:04,VALID,916.098,VALID,0,VALID,97.7474,VALID,0,VALID,18.8449,VALID,110,VALID,1.0332,
2010-06-22, 03:04:04,VALID,916.109,VALID,0,VALID,97.7246,VALID,0,VALID,18.8059,VALID,110,VALID,0.987109,
2010-06-22, 03:05:04,VALID,916.093,VALID,0,VALID,97.7322,VALID,0,VALID,18.8059,VALID,111,VALID,1.12344,
2010-06-22, 03:06:04,VALID,916.095,VALID,0,VALID,97.7551,VALID,0,VALID,18.8059,VALID,110,VALID,0.9875,
2010-06-22, 03:07:04,VALID,916.092,VALID,0,VALID,97.7322,VALID,0,VALID,18.8254,VALID,110,VALID,1.02109,
2010-06-22, 03:08:04,VALID,916.069,VALID,0,VALID,97.7398,VALID,0,VALID,18.8268,VALID,110,VALID,0.860547,
2010-06-22, 03:09:04,VALID,916.062,VALID,0,VALID,97.7398,VALID,0,VALID,18.8268,VALID,110,VALID,0.626953,
2010-06-22, 03:10:04,VALID,916.046,VALID,0,VALID,97.7322,VALID,0,VALID,18.8268,VALID,110,VALID,0.880469,
2010-06-22, 03:11:04,VALID,916.033,VALID,0,VALID,97.7398,VALID,0,VALID,18.7864,VALID,110,VALID,0.919141,
2010-06-22, 03:12:04,VALID,916.013,VALID,0,VALID,97.7398,VALID,0,VALID,18.8059,VALID,111,VALID,1.07148,
2010-06-22, 03:13:04,VALID,916.004,VALID,0,VALID,97.7398,VALID,0,VALID,18.8463,VALID,138,VALID,1.32656,
2010-06-22, 03:14:04,VALID,915.964,VALID,0,VALID,97.7627,VALID,0,VALID,18.8449,VALID,106,VALID,1.25977,
2010-06-22, 03:15:04,VALID,915.959,VALID,0,VALID,97.7627,VALID,0,VALID,18.8449,VALID,104,VALID,1.01641,
2010-06-22, 03:16:04,VALID,915.942,VALID,0,VALID,97.7627,VALID,0,VALID,18.8449,VALID,104,VALID,1.20039,
2010-06-22, 03:17:04,VALID,915.925,VALID,0,VALID,97.7551,VALID,0,VALID,18.8449,VALID,104,VALID,1.27813,
2010-06-22, 03:18:04,VALID,915.982,VALID,0,VALID,97.7551,VALID,0,VALID,18.8254,VALID,103,VALID,0.798437,
2010-06-22, 03:19:04,VALID,915.969,VALID,0,VALID,97.7474,VALID,0,VALID,18.8463,VALID,103,VALID,0.823438,
2010-06-22, 03:20:04,VALID,916.006,VALID,0,VALID,97.7474,VALID,0,VALID,18.8268,VALID,103,VALID,1.02695,
2010-06-22, 03:21:04,VALID,915.968,VALID,0,VALID,97.7551,VALID,0,VALID,18.8073,VALID,92,VALID,1.30234,
2010-06-22, 03:22:04,VALID,915.939,VALID,0,VALID,97.7474,VALID,0,VALID,18.7279,VALID,80,VALID,1.2832,
2010-06-22, 03:23:04,VALID,915.907,VALID,0,VALID,97.7551,VALID,0,VALID,18.7293,VALID,80,VALID,1.10547,
2010-06-22, 03:24:04,VALID,915.888,VALID,0,VALID,97.7627,VALID,0,VALID,18.7293,VALID,81,VALID,0.913672,
2010-06-22, 03:25:04,VALID,915.853,VALID,0,VALID,97.7398,VALID,0,VALID,18.7293,VALID,80,VALID,0.751953,
2010-06-22, 03:26:04,VALID,915.835,VALID,0,VALID,97.7551,VALID,0,VALID,18.7084,VALID,81,VALID,0.892969,
2010-06-22, 03:27:04,VALID,915.789,VALID,0,VALID,97.7627,VALID,0,VALID,18.7293,VALID,81,VALID,0.794922,
2010-06-22, 03:28:04,VALID,915.825,VALID,0,VALID,97.7627,VALID,0,VALID,18.7098,VALID,81,VALID,0.848828,
2010-06-22, 03:29:04,VALID,915.802,VALID,0,VALID,97.7398,VALID,0,VALID,18.7084,VALID,81,VALID,0.566406,
2010-06-22, 03:30:04,VALID,915.776,VALID,0,VALID,97.7627,VALID,0,VALID,18.7098,VALID,81,VALID,0.227344,
2010-06-22, 03:31:04,VALID,915.765,VALID,0,VALID,97.7551,VALID,0,VALID,18.7084,VALID,81,VALID,0.263672,
2010-06-22, 03:32:04,VALID,915.783,VALID,0,VALID,97.7779,VALID,0,VALID,18.7293,VALID,81,VALID,0.159766,
2010-06-22, 03:33:04,VALID,915.761,VALID,0,VALID,97.7627,VALID,0,VALID,18.7279,VALID,81,VALID,0,
2010-06-22, 03:34:04,VALID,915.766,VALID,0,VALID,97.7474,VALID,0,VALID,18.7474,VALID,81,VALID,0,
2010-06-22, 03:35:04,VALID,915.779,VALID,0,VALID,97.7627,VALID,0,VALID,18.7279,VALID,81,VALID,0,
2010-06-22, 03:36:04,VALID,915.776,VALID,0,VALID,97.7551,VALID,0,VALID,18.7474,VALID,81,VALID,0.0296875,
2010-06-22, 03:37:04,VALID,915.777,VALID,0,VALID,97.7322,VALID,0,VALID,18.7669,VALID,81,VALID,0.526172,
2010-06-22, 03:38:04,VALID,915.743,VALID,0,VALID,97.7474,VALID,0,VALID,18.8073,VALID,81,VALID,0.282813,
2010-06-22, 03:39:04,VALID,915.745,VALID,0,VALID,97.7779,VALID,0,VALID,18.7683,VALID,81,VALID,0.411328,
2010-06-22, 03:40:04,VALID,915.759,VALID,0,VALID,97.7398,VALID,0,VALID,18.6889,VALID,81,VALID,0.771484,
2010-06-22, 03:41:04,VALID,915.748,VALID,0,VALID,97.7474,VALID,0,VALID,18.6889,VALID,81,VALID,0.88125,
2010-06-22, 03:42:04,VALID,915.744,VALID,0,VALID,97.7398,VALID,0,VALID,18.7293,VALID,81,VALID,0.900781,
2010-06-22, 03:43:04,VALID,915.743,VALID,0,VALID,97.7627,VALID,0,VALID,18.7084,VALID,81,VALID,0.438672,
2010-06-22, 03:44:04,VALID,915.759,VALID,0,VALID,97.7551,VALID,0,VALID,18.7488,VALID,81,VALID,0.405859,
2010-06-22, 03:45:04,VALID,915.722,VALID,0,VALID,97.7627,VALID,0,VALID,18.746,VALID,81,VALID,0.658594,
2010-06-22, 03:46:04,VALID,915.705,VALID,0,VALID,97.7474,VALID,0,VALID,18.7474,VALID,81,VALID,0.689453,